Year,Month,Day,Hour,Minute,Value (Times are PST for temperature in C)
2010,05,08,00,00,9.10
2010,05,08,00,01,9.10
2010,05,08,00,02,9.20
2010,05,08,00,03,9.20
2010,05,08,00,04,9.20
2010,05,08,00,05,9.20
2010,05,08,00,06,9.30
2010,05,08,00,07,9.30
2010,05,08,00,08,9.30
2010,05,08,00,09,9.40
2010,05,08,00,10,9.40
2010,05,08,00,11,9.40
2010,05,08,00,12,9.40
2010,05,08,00,13,9.40
2010,05,08,00,14,9.40
2010,05,08,00,15,9.40
2010,05,08,00,16,9.40
2010,05,08,00,17,9.30
2010,05,08,00,18,9.30
2010,05,08,00,19,9.30
2010,05,08,00,20,9.20
2010,05,08,00,21,9.20
2010,05,08,00,22,9.20
2010,05,08,00,23,9.20
2010,05,08,00,24,9.10
2010,05,08,00,25,9.00
2010,05,08,00,26,9.00
2010,05,08,00,27,9.00
2010,05,08,00,28,9.00
2010,05,08,00,29,9.00
2010,05,08,00,30,8.90
2010,05,08,00,31,8.90
2010,05,08,00,32,8.90
2010,05,08,00,33,8.90
2010,05,08,00,34,8.90
2010,05,08,00,35,8.90
2010,05,08,00,36,8.80
2010,05,08,00,37,8.80
2010,05,08,00,38,8.80
2010,05,08,00,39,8.70
2010,05,08,00,40,8.70
2010,05,08,00,41,8.70
2010,05,08,00,42,8.70
2010,05,08,00,43,8.70
2010,05,08,00,44,8.70
2010,05,08,00,45,8.60
2010,05,08,00,46,8.60
2010,05,08,00,47,8.50
2010,05,08,00,48,8.40
2010,05,08,00,49,8.40
2010,05,08,00,50,8.30
2010,05,08,00,51,8.20
2010,05,08,00,52,8.10
2010,05,08,00,53,8.00
2010,05,08,00,54,8.00
2010,05,08,00,55,7.90
2010,05,08,00,56,7.80
2010,05,08,00,57,7.80
2010,05,08,00,58,7.70
2010,05,08,00,59,7.70
2010,05,08,01,00,7.60
2010,05,08,01,01,7.60
2010,05,08,01,02,7.60
2010,05,08,01,03,7.60
2010,05,08,01,04,7.50
2010,05,08,01,05,7.50
2010,05,08,01,06,7.50
2010,05,08,01,07,7.50
2010,05,08,01,08,7.40
2010,05,08,01,09,7.40
2010,05,08,01,10,7.40
2010,05,08,01,11,7.40
2010,05,08,01,12,7.40
2010,05,08,01,13,7.40
2010,05,08,01,14,7.40
2010,05,08,01,15,7.40
2010,05,08,01,16,7.40
2010,05,08,01,17,7.40
2010,05,08,01,18,7.40
2010,05,08,01,19,7.50
2010,05,08,01,20,7.50
2010,05,08,01,21,7.50
2010,05,08,01,22,7.50
2010,05,08,01,23,7.50
2010,05,08,01,24,7.60
2010,05,08,01,25,7.60
2010,05,08,01,26,7.60
2010,05,08,01,27,7.60
2010,05,08,01,28,7.60
2010,05,08,01,29,7.60
2010,05,08,01,30,7.60
2010,05,08,01,31,7.60
2010,05,08,01,32,7.70
2010,05,08,01,33,7.70
2010,05,08,01,34,7.70
2010,05,08,01,35,7.80
2010,05,08,01,36,7.80
2010,05,08,01,37,7.80
2010,05,08,01,38,7.80
2010,05,08,01,39,7.80
2010,05,08,01,40,7.90
2010,05,08,01,41,7.90
2010,05,08,01,42,7.90
2010,05,08,01,43,7.90
2010,05,08,01,44,8.00
2010,05,08,01,45,8.00
2010,05,08,01,46,8.10
2010,05,08,01,47,8.10
2010,05,08,01,48,8.20
2010,05,08,01,49,8.20
2010,05,08,01,50,8.20
2010,05,08,01,51,8.30
2010,05,08,01,52,8.30
2010,05,08,01,53,8.40
2010,05,08,01,54,8.40
2010,05,08,01,55,8.50
2010,05,08,01,56,8.60
2010,05,08,01,57,8.70
2010,05,08,01,58,8.70
2010,05,08,01,59,8.70
2010,05,08,02,00,8.70
2010,05,08,02,01,8.80
2010,05,08,02,02,8.80
2010,05,08,02,03,8.90
2010,05,08,02,04,8.90
2010,05,08,02,05,8.90
2010,05,08,02,06,9.00
2010,05,08,02,07,9.00
2010,05,08,02,08,9.00
2010,05,08,02,09,9.00
2010,05,08,02,10,9.00
2010,05,08,02,11,9.00
2010,05,08,02,12,9.00
2010,05,08,02,13,9.00
2010,05,08,02,14,9.00
2010,05,08,02,15,9.00
2010,05,08,02,16,9.00
2010,05,08,02,17,9.00
2010,05,08,02,18,9.00
2010,05,08,02,19,9.00
2010,05,08,02,20,9.00
2010,05,08,02,21,9.00
2010,05,08,02,22,9.10
2010,05,08,02,23,9.10
2010,05,08,02,24,9.10
2010,05,08,02,25,9.10
2010,05,08,02,26,9.20
2010,05,08,02,27,9.20
2010,05,08,02,28,9.20
2010,05,08,02,29,9.20
2010,05,08,02,30,9.20
2010,05,08,02,31,9.20
2010,05,08,02,32,9.20
2010,05,08,02,33,9.20
2010,05,08,02,34,9.20
2010,05,08,02,35,9.20
2010,05,08,02,36,9.20
2010,05,08,02,37,9.20
2010,05,08,02,38,9.20
2010,05,08,02,39,9.20
2010,05,08,02,40,9.20
2010,05,08,02,41,9.20
2010,05,08,02,42,9.20
2010,05,08,02,43,9.20
2010,05,08,02,44,9.20
2010,05,08,02,45,9.20
2010,05,08,02,46,9.10
2010,05,08,02,47,9.10
2010,05,08,02,48,9.00
2010,05,08,02,49,9.00
2010,05,08,02,50,9.00
2010,05,08,02,51,9.00
2010,05,08,02,52,8.90
2010,05,08,02,53,8.90
2010,05,08,02,54,8.90
2010,05,08,02,55,8.90
2010,05,08,02,56,8.90
2010,05,08,02,57,8.80
2010,05,08,02,58,8.80
2010,05,08,02,59,8.80
2010,05,08,03,00,8.70
2010,05,08,03,01,8.70
2010,05,08,03,02,8.70
2010,05,08,03,03,8.70
2010,05,08,03,04,8.60
2010,05,08,03,05,8.60
2010,05,08,03,06,8.60
2010,05,08,03,07,8.50
2010,05,08,03,08,8.50
2010,05,08,03,09,8.50
2010,05,08,03,10,8.40
2010,05,08,03,11,8.40
2010,05,08,03,12,8.40
2010,05,08,03,13,8.30
2010,05,08,03,14,8.30
2010,05,08,03,15,8.20
2010,05,08,03,16,8.20
2010,05,08,03,17,8.20
2010,05,08,03,18,8.20
2010,05,08,03,19,8.20
2010,05,08,03,20,8.10
2010,05,08,03,21,8.10
2010,05,08,03,22,8.10
2010,05,08,03,23,8.00
2010,05,08,03,24,8.00
2010,05,08,03,25,8.00
2010,05,08,03,26,8.00
2010,05,08,03,27,7.90
2010,05,08,03,28,7.90
2010,05,08,03,29,7.90
2010,05,08,03,30,7.90
2010,05,08,03,31,7.90
2010,05,08,03,32,7.80
2010,05,08,03,33,7.80
2010,05,08,03,34,7.80
2010,05,08,03,35,7.80
2010,05,08,03,36,7.80
2010,05,08,03,37,7.80
2010,05,08,03,38,7.80
2010,05,08,03,39,7.80
2010,05,08,03,40,7.80
2010,05,08,03,41,7.80
2010,05,08,03,42,7.80
2010,05,08,03,43,7.80
2010,05,08,03,44,7.80
2010,05,08,03,45,7.80
2010,05,08,03,46,7.80
2010,05,08,03,47,7.80
2010,05,08,03,48,7.80
2010,05,08,03,49,7.80
2010,05,08,03,50,7.80
2010,05,08,03,51,7.90
2010,05,08,03,52,7.90
2010,05,08,03,53,7.90
2010,05,08,03,54,8.00
2010,05,08,03,55,8.00
2010,05,08,03,56,8.00
2010,05,08,03,57,8.00
2010,05,08,03,58,8.00
2010,05,08,03,59,8.00
2010,05,08,04,00,8.00
2010,05,08,04,01,8.00
2010,05,08,04,02,8.00
2010,05,08,04,03,8.00
2010,05,08,04,04,8.00
2010,05,08,04,05,8.00
2010,05,08,04,06,8.00
2010,05,08,04,07,8.00
2010,05,08,04,08,8.00
2010,05,08,04,09,8.00
2010,05,08,04,10,7.90
2010,05,08,04,11,7.90
2010,05,08,04,12,7.90
2010,05,08,04,13,7.90
2010,05,08,04,14,7.80
2010,05,08,04,15,7.80
2010,05,08,04,16,7.80
2010,05,08,04,17,7.80
2010,05,08,04,18,7.80
2010,05,08,04,19,7.80
2010,05,08,04,20,7.80
2010,05,08,04,21,7.80
2010,05,08,04,22,7.80
2010,05,08,04,23,7.80
2010,05,08,04,24,7.80
2010,05,08,04,25,7.80
2010,05,08,04,26,7.80
2010,05,08,04,27,7.80
2010,05,08,04,28,7.80
2010,05,08,04,29,7.80
2010,05,08,04,30,7.80
2010,05,08,04,31,7.80
2010,05,08,04,32,7.80
2010,05,08,04,33,7.80
2010,05,08,04,34,7.80
2010,05,08,04,35,7.80
2010,05,08,04,36,7.90
2010,05,08,04,37,7.90
2010,05,08,04,38,7.90
2010,05,08,04,39,7.90
2010,05,08,04,40,7.90
2010,05,08,04,41,7.90
2010,05,08,04,42,7.90
2010,05,08,04,43,7.90
2010,05,08,04,44,7.90
2010,05,08,04,45,7.90
2010,05,08,04,46,7.80
2010,05,08,04,47,7.80
2010,05,08,04,48,7.80
2010,05,08,04,49,7.80
2010,05,08,04,50,7.70
2010,05,08,04,51,7.70
2010,05,08,04,52,7.70
2010,05,08,04,53,7.60
2010,05,08,04,54,7.60
2010,05,08,04,55,7.60
2010,05,08,04,56,7.50
2010,05,08,04,57,7.50
2010,05,08,04,58,7.50
2010,05,08,04,59,7.40
2010,05,08,05,00,7.40
2010,05,08,05,01,7.50
2010,05,08,05,02,7.50
2010,05,08,05,03,7.50
2010,05,08,05,04,7.50
2010,05,08,05,05,7.50
2010,05,08,05,06,7.50
2010,05,08,05,07,7.50
2010,05,08,05,08,7.50
2010,05,08,05,09,7.50
2010,05,08,05,10,7.60
2010,05,08,05,11,7.60
2010,05,08,05,12,7.60
2010,05,08,05,13,7.50
2010,05,08,05,14,7.50
2010,05,08,05,15,7.50
2010,05,08,05,16,7.50
2010,05,08,05,17,7.40
2010,05,08,05,18,7.40
2010,05,08,05,19,7.40
2010,05,08,05,20,7.40
2010,05,08,05,21,7.30
2010,05,08,05,22,7.40
2010,05,08,05,23,7.40
2010,05,08,05,24,7.40
2010,05,08,05,25,7.50
2010,05,08,05,26,7.50
2010,05,08,05,27,7.40
2010,05,08,05,28,7.40
2010,05,08,05,29,7.40
2010,05,08,05,30,7.40
2010,05,08,05,31,7.30
2010,05,08,05,32,7.30
2010,05,08,05,33,7.30
2010,05,08,05,34,7.30
2010,05,08,05,35,7.30
2010,05,08,05,36,7.30
2010,05,08,05,37,7.30
2010,05,08,05,38,7.30
2010,05,08,05,39,7.30
2010,05,08,05,40,7.30
2010,05,08,05,41,7.30
2010,05,08,05,42,7.30
2010,05,08,05,43,7.30
2010,05,08,05,44,7.30
2010,05,08,05,45,7.30
2010,05,08,05,46,7.30
2010,05,08,05,47,7.30
2010,05,08,05,48,7.30
2010,05,08,05,49,7.30
2010,05,08,05,50,7.30
2010,05,08,05,51,7.30
2010,05,08,05,52,7.30
2010,05,08,05,53,7.30
2010,05,08,05,54,7.30
2010,05,08,05,55,7.30
2010,05,08,05,56,7.30
2010,05,08,05,57,7.30
2010,05,08,05,58,7.30
2010,05,08,05,59,7.30
2010,05,08,06,00,7.30
2010,05,08,06,01,7.30
2010,05,08,06,02,7.30
2010,05,08,06,03,7.30
2010,05,08,06,04,7.30
2010,05,08,06,05,7.30
2010,05,08,06,06,7.30
2010,05,08,06,07,7.30
2010,05,08,06,08,7.30
2010,05,08,06,09,7.30
2010,05,08,06,10,7.30
2010,05,08,06,11,7.30
2010,05,08,06,12,7.30
2010,05,08,06,13,7.30
2010,05,08,06,14,7.30
2010,05,08,06,15,7.30
2010,05,08,06,16,7.30
2010,05,08,06,17,7.30
2010,05,08,06,18,7.30
2010,05,08,06,19,7.30
2010,05,08,06,20,7.30
2010,05,08,06,21,7.30
2010,05,08,06,22,7.30
2010,05,08,06,23,7.30
2010,05,08,06,24,7.30
2010,05,08,06,25,7.30
2010,05,08,06,26,7.40
2010,05,08,06,27,7.40
2010,05,08,06,28,7.40
2010,05,08,06,29,7.40
2010,05,08,06,30,7.40
2010,05,08,06,31,7.40
2010,05,08,06,32,7.40
2010,05,08,06,33,7.50
2010,05,08,06,34,7.50
2010,05,08,06,35,7.50
2010,05,08,06,36,7.50
2010,05,08,06,37,7.60
2010,05,08,06,38,7.60
2010,05,08,06,39,7.60
2010,05,08,06,40,7.60
2010,05,08,06,41,7.70
2010,05,08,06,42,7.60
2010,05,08,06,43,7.60
2010,05,08,06,44,7.70
2010,05,08,06,45,7.70
2010,05,08,06,46,7.70
2010,05,08,06,47,7.70
2010,05,08,06,48,7.70
2010,05,08,06,49,7.80
2010,05,08,06,50,7.80
2010,05,08,06,51,7.80
2010,05,08,06,52,7.80
2010,05,08,06,53,7.80
2010,05,08,06,54,7.80
2010,05,08,06,55,7.80
2010,05,08,06,56,7.80
2010,05,08,06,57,7.80
2010,05,08,06,58,7.80
2010,05,08,06,59,7.80
2010,05,08,07,00,7.90
2010,05,08,07,01,7.90
2010,05,08,07,02,7.90
2010,05,08,07,03,7.90
2010,05,08,07,04,7.90
2010,05,08,07,05,7.90
2010,05,08,07,06,7.90
2010,05,08,07,07,7.90
2010,05,08,07,08,8.00
2010,05,08,07,09,8.00
2010,05,08,07,10,8.10
2010,05,08,07,11,8.10
2010,05,08,07,12,8.10
2010,05,08,07,13,8.10
2010,05,08,07,14,8.10
2010,05,08,07,15,8.20
2010,05,08,07,16,8.20
2010,05,08,07,17,8.20
2010,05,08,07,18,8.20
2010,05,08,07,19,8.20
2010,05,08,07,20,8.20
2010,05,08,07,21,8.20
2010,05,08,07,22,8.20
2010,05,08,07,23,8.20
2010,05,08,07,24,8.20
2010,05,08,07,25,8.20
2010,05,08,07,26,8.20
2010,05,08,07,27,8.20
2010,05,08,07,28,8.20
2010,05,08,07,29,8.30
2010,05,08,07,30,8.30
2010,05,08,07,31,8.30
2010,05,08,07,32,8.40
2010,05,08,07,33,8.40
2010,05,08,07,34,8.40
2010,05,08,07,35,8.50
2010,05,08,07,36,8.50
2010,05,08,07,37,8.50
2010,05,08,07,38,8.60
2010,05,08,07,39,8.60
2010,05,08,07,40,8.60
2010,05,08,07,41,8.60
2010,05,08,07,42,8.60
2010,05,08,07,43,8.70
2010,05,08,07,44,8.70
2010,05,08,07,45,8.70
2010,05,08,07,46,8.70
2010,05,08,07,47,8.70
2010,05,08,07,48,8.70
2010,05,08,07,49,8.80
2010,05,08,07,50,8.80
2010,05,08,07,51,8.80
2010,05,08,07,52,8.80
2010,05,08,07,53,8.80
2010,05,08,07,54,8.90
2010,05,08,07,55,8.90
2010,05,08,07,56,8.90
2010,05,08,07,57,8.90
2010,05,08,07,58,8.90
2010,05,08,07,59,8.90
2010,05,08,08,00,8.90
2010,05,08,08,01,9.00
2010,05,08,08,02,9.00
2010,05,08,08,03,9.00
2010,05,08,08,04,9.10
2010,05,08,08,05,9.10
2010,05,08,08,06,9.10
2010,05,08,08,07,9.20
2010,05,08,08,08,9.20
2010,05,08,08,09,9.20
2010,05,08,08,10,9.20
2010,05,08,08,11,9.20
2010,05,08,08,12,9.20
2010,05,08,08,13,9.20
2010,05,08,08,14,9.20
2010,05,08,08,15,9.20
2010,05,08,08,16,9.20
2010,05,08,08,17,9.20
2010,05,08,08,18,9.30
2010,05,08,08,19,9.30
2010,05,08,08,20,9.30
2010,05,08,08,21,9.30
2010,05,08,08,22,9.30
2010,05,08,08,23,9.30
2010,05,08,08,24,9.30
2010,05,08,08,25,9.40
2010,05,08,08,26,9.40
2010,05,08,08,27,9.40
2010,05,08,08,28,9.40
2010,05,08,08,29,9.50
2010,05,08,08,30,9.50
2010,05,08,08,31,9.50
2010,05,08,08,32,9.50
2010,05,08,08,33,9.60
2010,05,08,08,34,9.60
2010,05,08,08,35,9.60
2010,05,08,08,36,9.60
2010,05,08,08,37,9.60
2010,05,08,08,38,9.70
2010,05,08,08,39,9.70
2010,05,08,08,40,9.70
2010,05,08,08,41,9.70
2010,05,08,08,42,9.70
2010,05,08,08,43,9.70
2010,05,08,08,44,9.70
2010,05,08,08,45,9.80
2010,05,08,08,46,9.80
2010,05,08,08,47,9.80
2010,05,08,08,48,9.80
2010,05,08,08,49,9.80
2010,05,08,08,50,9.80
2010,05,08,08,51,9.90
2010,05,08,08,52,9.90
2010,05,08,08,53,9.90
2010,05,08,08,54,10.10
2010,05,08,08,55,10.10
2010,05,08,08,56,10.20
2010,05,08,08,57,10.30
2010,05,08,08,58,10.40
2010,05,08,08,59,10.40
2010,05,08,09,00,10.40
2010,05,08,09,01,10.40
2010,05,08,09,02,10.40
2010,05,08,09,03,10.40
2010,05,08,09,04,10.40
2010,05,08,09,05,10.40
2010,05,08,09,06,10.40
2010,05,08,09,07,10.40
2010,05,08,09,08,10.30
2010,05,08,09,09,10.30
2010,05,08,09,10,10.20
2010,05,08,09,11,10.20
2010,05,08,09,12,10.20
2010,05,08,09,13,10.20
2010,05,08,09,14,10.20
2010,05,08,09,15,10.20
2010,05,08,09,16,10.20
2010,05,08,09,17,10.20
2010,05,08,09,18,10.20
2010,05,08,09,19,10.20
2010,05,08,09,20,10.30
2010,05,08,09,21,10.30
2010,05,08,09,22,10.30
2010,05,08,09,23,10.30
2010,05,08,09,24,10.30
2010,05,08,09,25,10.30
2010,05,08,09,26,10.30
2010,05,08,09,27,10.30
2010,05,08,09,28,10.30
2010,05,08,09,29,10.30
2010,05,08,09,30,10.30
2010,05,08,09,31,10.40
2010,05,08,09,32,10.40
2010,05,08,09,33,10.60
2010,05,08,09,34,10.60
2010,05,08,09,35,10.70
2010,05,08,09,36,10.70
2010,05,08,09,37,10.80
2010,05,08,09,38,10.80
2010,05,08,09,39,10.80
2010,05,08,09,40,10.80
2010,05,08,09,41,10.70
2010,05,08,09,42,10.80
2010,05,08,09,43,10.70
2010,05,08,09,44,10.80
2010,05,08,09,45,10.80
2010,05,08,09,46,10.80
2010,05,08,09,47,10.90
2010,05,08,09,48,10.90
2010,05,08,09,49,10.80
2010,05,08,09,50,10.80
2010,05,08,09,51,10.80
2010,05,08,09,52,10.70
2010,05,08,09,53,10.70
2010,05,08,09,54,10.60
2010,05,08,09,55,10.60
2010,05,08,09,56,10.60
2010,05,08,09,57,10.60
2010,05,08,09,58,10.50
2010,05,08,09,59,10.40
2010,05,08,10,00,10.50
2010,05,08,10,01,10.60
2010,05,08,10,02,10.60
2010,05,08,10,03,10.70
2010,05,08,10,04,10.80
2010,05,08,10,05,10.80
2010,05,08,10,06,10.90
2010,05,08,10,07,10.90
2010,05,08,10,08,11.00
2010,05,08,10,09,11.10
2010,05,08,10,10,11.00
2010,05,08,10,11,10.90
2010,05,08,10,12,10.90
2010,05,08,10,13,10.90
2010,05,08,10,14,10.90
2010,05,08,10,15,10.90
2010,05,08,10,16,10.90
2010,05,08,10,17,10.90
2010,05,08,10,18,10.90
2010,05,08,10,19,10.90
2010,05,08,10,20,10.90
2010,05,08,10,21,10.90
2010,05,08,10,22,10.90
2010,05,08,10,23,11.00
2010,05,08,10,24,11.10
2010,05,08,10,25,11.10
2010,05,08,10,26,11.10
2010,05,08,10,27,11.10
2010,05,08,10,28,11.10
2010,05,08,10,29,11.10
2010,05,08,10,30,11.20
2010,05,08,10,31,11.20
2010,05,08,10,32,11.30
2010,05,08,10,33,11.30
2010,05,08,10,34,11.40
2010,05,08,10,35,11.40
2010,05,08,10,36,11.50
2010,05,08,10,37,11.60
2010,05,08,10,38,11.60
2010,05,08,10,39,11.60
2010,05,08,10,40,11.60
2010,05,08,10,41,11.60
2010,05,08,10,42,11.60
2010,05,08,10,43,11.60
2010,05,08,10,44,11.70
2010,05,08,10,45,11.70
2010,05,08,10,46,11.70
2010,05,08,10,47,11.80
2010,05,08,10,48,11.80
2010,05,08,10,49,11.90
2010,05,08,10,50,12.00
2010,05,08,10,51,12.00
2010,05,08,10,52,12.00
2010,05,08,10,53,12.10
2010,05,08,10,54,12.10
2010,05,08,10,55,12.10
2010,05,08,10,56,12.10
2010,05,08,10,57,12.20
2010,05,08,10,58,12.20
2010,05,08,10,59,12.30
2010,05,08,11,00,12.40
2010,05,08,11,01,12.50
2010,05,08,11,02,12.60
2010,05,08,11,03,12.60
2010,05,08,11,04,12.60
2010,05,08,11,05,12.70
2010,05,08,11,06,12.80
2010,05,08,11,07,12.90
2010,05,08,11,08,12.90
2010,05,08,11,09,13.00
2010,05,08,11,10,13.10
2010,05,08,11,11,13.10
2010,05,08,11,12,13.10
2010,05,08,11,13,13.20
2010,05,08,11,14,13.20
2010,05,08,11,15,13.20
2010,05,08,11,16,13.10
2010,05,08,11,17,13.00
2010,05,08,11,18,13.00
2010,05,08,11,19,12.90
2010,05,08,11,20,12.80
2010,05,08,11,21,12.80
2010,05,08,11,22,12.90
2010,05,08,11,23,12.90
2010,05,08,11,24,12.80
2010,05,08,11,25,12.70
2010,05,08,11,26,12.70
2010,05,08,11,27,12.70
2010,05,08,11,28,12.60
2010,05,08,11,29,12.60
2010,05,08,11,30,12.70
2010,05,08,11,31,12.80
2010,05,08,11,32,12.80
2010,05,08,11,33,12.90
2010,05,08,11,34,13.00
2010,05,08,11,35,13.10
2010,05,08,11,36,13.20
2010,05,08,11,37,13.30
2010,05,08,11,38,13.30
2010,05,08,11,39,13.30
2010,05,08,11,40,13.30
2010,05,08,11,41,13.40
2010,05,08,11,42,13.50
2010,05,08,11,43,13.50
2010,05,08,11,44,13.50
2010,05,08,11,45,13.50
2010,05,08,11,46,13.50
2010,05,08,11,47,13.40
2010,05,08,11,48,13.50
2010,05,08,11,49,13.50
2010,05,08,11,50,13.60
2010,05,08,11,51,13.70
2010,05,08,11,52,13.80
2010,05,08,11,53,13.90
2010,05,08,11,54,13.90
2010,05,08,11,55,14.00
2010,05,08,11,56,14.00
2010,05,08,11,57,14.00
2010,05,08,11,58,13.90
2010,05,08,11,59,13.90
2010,05,08,12,00,13.80
2010,05,08,12,01,13.80
2010,05,08,12,02,13.70
2010,05,08,12,03,13.70
2010,05,08,12,04,13.70
2010,05,08,12,05,13.70
2010,05,08,12,06,13.80
2010,05,08,12,07,13.80
2010,05,08,12,08,13.90
2010,05,08,12,09,13.90
2010,05,08,12,10,14.00
2010,05,08,12,11,14.10
2010,05,08,12,12,14.20
2010,05,08,12,13,14.30
2010,05,08,12,14,14.30
2010,05,08,12,15,14.40
2010,05,08,12,16,14.50
2010,05,08,12,17,14.60
2010,05,08,12,18,14.70
2010,05,08,12,19,14.80
2010,05,08,12,20,14.80
2010,05,08,12,21,14.70
2010,05,08,12,22,14.60
2010,05,08,12,23,14.50
2010,05,08,12,24,14.50
2010,05,08,12,25,14.40
2010,05,08,12,26,14.30
2010,05,08,12,27,14.20
2010,05,08,12,28,14.10
2010,05,08,12,29,14.00
2010,05,08,12,30,14.00
2010,05,08,12,31,14.00
2010,05,08,12,32,14.00
2010,05,08,12,33,14.10
2010,05,08,12,34,14.10
2010,05,08,12,35,14.00
2010,05,08,12,36,14.00
2010,05,08,12,37,14.00
2010,05,08,12,38,14.00
2010,05,08,12,39,14.10
2010,05,08,12,40,14.20
2010,05,08,12,41,14.30
2010,05,08,12,42,14.40
2010,05,08,12,43,14.60
2010,05,08,12,44,14.70
2010,05,08,12,45,14.80
2010,05,08,12,46,14.80
2010,05,08,12,47,14.80
2010,05,08,12,48,14.70
2010,05,08,12,49,14.60
2010,05,08,12,50,14.50
2010,05,08,12,51,14.50
2010,05,08,12,52,14.40
2010,05,08,12,53,14.20
2010,05,08,12,54,14.20
2010,05,08,12,55,14.10
2010,05,08,12,56,14.00
2010,05,08,12,57,13.90
2010,05,08,12,58,13.70
2010,05,08,12,59,13.70
2010,05,08,13,00,13.80
2010,05,08,13,01,13.80
2010,05,08,13,02,13.70
2010,05,08,13,03,13.70
2010,05,08,13,04,13.90
2010,05,08,13,05,14.10
2010,05,08,13,06,14.30
2010,05,08,13,07,14.40
2010,05,08,13,08,14.50
2010,05,08,13,09,14.40
2010,05,08,13,10,14.20
2010,05,08,13,11,14.00
2010,05,08,13,12,13.90
2010,05,08,13,13,13.90
2010,05,08,13,14,13.90
2010,05,08,13,15,13.80
2010,05,08,13,16,13.80
2010,05,08,13,17,13.80
2010,05,08,13,18,13.70
2010,05,08,13,19,13.70
2010,05,08,13,20,13.80
2010,05,08,13,21,13.80
2010,05,08,13,22,13.90
2010,05,08,13,23,13.90
2010,05,08,13,24,14.00
2010,05,08,13,25,14.10
2010,05,08,13,26,14.10
2010,05,08,13,27,14.10
2010,05,08,13,28,14.10
2010,05,08,13,29,14.10
2010,05,08,13,30,14.20
2010,05,08,13,31,14.20
2010,05,08,13,32,14.20
2010,05,08,13,33,14.20
2010,05,08,13,34,14.20
2010,05,08,13,35,14.30
2010,05,08,13,36,14.30
2010,05,08,13,37,14.30
2010,05,08,13,38,14.20
2010,05,08,13,39,14.10
2010,05,08,13,40,14.00
2010,05,08,13,41,14.00
2010,05,08,13,42,14.00
2010,05,08,13,43,14.10
2010,05,08,13,44,14.20
2010,05,08,13,45,14.20
2010,05,08,13,46,14.20
2010,05,08,13,47,14.20
2010,05,08,13,48,14.20
2010,05,08,13,49,14.20
2010,05,08,13,50,14.20
2010,05,08,13,51,14.20
2010,05,08,13,52,14.20
2010,05,08,13,53,14.20
2010,05,08,13,54,14.30
2010,05,08,13,55,14.30
2010,05,08,13,56,14.30
2010,05,08,13,57,14.30
2010,05,08,13,58,14.20
2010,05,08,13,59,14.20
2010,05,08,14,00,14.20
2010,05,08,14,01,14.30
2010,05,08,14,02,14.40
2010,05,08,14,03,14.60
2010,05,08,14,04,14.60
2010,05,08,14,05,14.60
2010,05,08,14,06,14.50
2010,05,08,14,07,14.30
2010,05,08,14,08,14.20
2010,05,08,14,09,14.10
2010,05,08,14,10,14.10
2010,05,08,14,11,14.20
2010,05,08,14,12,14.20
2010,05,08,14,13,14.30
2010,05,08,14,14,14.40
2010,05,08,14,15,14.50
2010,05,08,14,16,14.50
2010,05,08,14,17,14.60
2010,05,08,14,18,14.60
2010,05,08,14,19,14.60
2010,05,08,14,20,14.70
2010,05,08,14,21,14.80
2010,05,08,14,22,14.90
2010,05,08,14,23,15.00
2010,05,08,14,24,15.00
2010,05,08,14,25,15.00
2010,05,08,14,26,15.00
2010,05,08,14,27,15.20
2010,05,08,14,28,15.30
2010,05,08,14,29,15.30
2010,05,08,14,30,15.30
2010,05,08,14,31,15.40
2010,05,08,14,32,15.40
2010,05,08,14,33,15.30
2010,05,08,14,34,15.30
2010,05,08,14,35,15.30
2010,05,08,14,36,15.30
2010,05,08,14,37,15.30
2010,05,08,14,38,15.20
2010,05,08,14,39,15.10
2010,05,08,14,40,15.00
2010,05,08,14,41,14.90
2010,05,08,14,42,14.90
2010,05,08,14,43,14.80
2010,05,08,14,44,14.80
2010,05,08,14,45,14.90
2010,05,08,14,46,14.80
2010,05,08,14,47,14.90
2010,05,08,14,48,15.00
2010,05,08,14,49,15.10
2010,05,08,14,50,15.20
2010,05,08,14,51,15.20
2010,05,08,14,52,15.10
2010,05,08,14,53,15.20
2010,05,08,14,54,15.10
2010,05,08,14,55,15.00
2010,05,08,14,56,14.80
2010,05,08,14,57,14.80
2010,05,08,14,58,14.80
2010,05,08,14,59,14.70
2010,05,08,15,00,14.70
2010,05,08,15,01,14.80
2010,05,08,15,02,14.80
2010,05,08,15,03,14.80
2010,05,08,15,04,14.90
2010,05,08,15,05,15.00
2010,05,08,15,06,15.20
2010,05,08,15,07,15.30
2010,05,08,15,08,15.30
2010,05,08,15,09,15.30
2010,05,08,15,10,15.40
2010,05,08,15,11,15.50
2010,05,08,15,12,15.60
2010,05,08,15,13,15.70
2010,05,08,15,14,15.80
2010,05,08,15,15,15.80
2010,05,08,15,16,15.80
2010,05,08,15,17,15.80
2010,05,08,15,18,15.80
2010,05,08,15,19,15.70
2010,05,08,15,20,15.60
2010,05,08,15,21,15.60
2010,05,08,15,22,15.50
2010,05,08,15,23,15.50
2010,05,08,15,24,15.50
2010,05,08,15,25,15.40
2010,05,08,15,26,15.30
2010,05,08,15,27,15.20
2010,05,08,15,28,15.10
2010,05,08,15,29,15.10
2010,05,08,15,30,15.10
2010,05,08,15,31,15.20
2010,05,08,15,32,15.20
2010,05,08,15,33,15.20
2010,05,08,15,34,15.10
2010,05,08,15,35,15.20
2010,05,08,15,36,15.30
2010,05,08,15,37,15.30
2010,05,08,15,38,15.50
2010,05,08,15,39,15.50
2010,05,08,15,40,15.50
2010,05,08,15,41,15.50
2010,05,08,15,42,15.50
2010,05,08,15,43,15.50
2010,05,08,15,44,15.60
2010,05,08,15,45,15.60
2010,05,08,15,46,15.50
2010,05,08,15,47,15.50
2010,05,08,15,48,15.60
2010,05,08,15,49,15.60
2010,05,08,15,50,15.60
2010,05,08,15,51,15.70
2010,05,08,15,52,15.60
2010,05,08,15,53,15.60
2010,05,08,15,54,15.70
2010,05,08,15,55,15.60
2010,05,08,15,56,15.50
2010,05,08,15,57,15.40
2010,05,08,15,58,15.30
2010,05,08,15,59,15.30
2010,05,08,16,00,15.30
2010,05,08,16,01,15.40
2010,05,08,16,02,15.40
2010,05,08,16,03,15.30
2010,05,08,16,04,15.30
2010,05,08,16,05,15.30
2010,05,08,16,06,15.30
2010,05,08,16,07,15.30
2010,05,08,16,08,15.40
2010,05,08,16,09,15.50
2010,05,08,16,10,15.60
2010,05,08,16,11,15.60
2010,05,08,16,12,15.60
2010,05,08,16,13,15.60
2010,05,08,16,14,15.60
2010,05,08,16,15,15.50
2010,05,08,16,16,15.50
2010,05,08,16,17,15.40
2010,05,08,16,18,15.40
2010,05,08,16,19,15.40
2010,05,08,16,20,15.40
2010,05,08,16,21,15.40
2010,05,08,16,22,15.40
2010,05,08,16,23,15.40
2010,05,08,16,24,15.40
2010,05,08,16,25,15.50
2010,05,08,16,26,15.50
2010,05,08,16,27,15.50
2010,05,08,16,28,15.50
2010,05,08,16,29,15.50
2010,05,08,16,30,15.50
2010,05,08,16,31,15.50
2010,05,08,16,32,15.40
2010,05,08,16,33,15.40
2010,05,08,16,34,15.40
2010,05,08,16,35,15.40
2010,05,08,16,36,15.40
2010,05,08,16,37,15.40
2010,05,08,16,38,15.40
2010,05,08,16,39,15.40
2010,05,08,16,40,15.30
2010,05,08,16,41,15.20
2010,05,08,16,42,15.20
2010,05,08,16,43,15.20
2010,05,08,16,44,15.20
2010,05,08,16,45,15.20
2010,05,08,16,46,15.30
2010,05,08,16,47,15.20
2010,05,08,16,48,15.10
2010,05,08,16,49,15.10
2010,05,08,16,50,15.00
2010,05,08,16,51,15.00
2010,05,08,16,52,15.10
2010,05,08,16,53,15.10
2010,05,08,16,54,15.20
2010,05,08,16,55,15.20
2010,05,08,16,56,15.30
2010,05,08,16,57,15.30
2010,05,08,16,58,15.30
2010,05,08,16,59,15.30
2010,05,08,17,00,15.30
2010,05,08,17,01,15.30
2010,05,08,17,02,15.20
2010,05,08,17,03,15.20
2010,05,08,17,04,15.10
2010,05,08,17,05,15.10
2010,05,08,17,06,15.10
2010,05,08,17,07,15.10
2010,05,08,17,08,15.10
2010,05,08,17,09,15.20
2010,05,08,17,10,15.30
2010,05,08,17,11,15.30
2010,05,08,17,12,15.30
2010,05,08,17,13,15.30
2010,05,08,17,14,15.30
2010,05,08,17,15,15.20
2010,05,08,17,16,15.00
2010,05,08,17,17,14.90
2010,05,08,17,18,14.80
2010,05,08,17,19,14.80
2010,05,08,17,20,14.80
2010,05,08,17,21,14.70
2010,05,08,17,22,14.70
2010,05,08,17,23,14.60
2010,05,08,17,24,14.60
2010,05,08,17,25,14.60
2010,05,08,17,26,14.60
2010,05,08,17,27,14.60
2010,05,08,17,28,14.60
2010,05,08,17,29,14.60
2010,05,08,17,30,14.60
2010,05,08,17,31,14.60
2010,05,08,17,32,14.60
2010,05,08,17,33,14.60
2010,05,08,17,34,14.60
2010,05,08,17,35,14.70
2010,05,08,17,36,14.70
2010,05,08,17,37,14.80
2010,05,08,17,38,14.80
2010,05,08,17,39,14.90
2010,05,08,17,40,15.00
2010,05,08,17,41,15.00
2010,05,08,17,42,15.10